Location: Caledonia
(42.3690°N, 88.8930°W)
Time: 05:21:49
(UTC-05:00)

Hubble Space Telescope - Visible Passes

Search period start: 01 October 2016 00:00
Search period end: 11 October 2016 00:00
Orbit: 539 x 542 km, 28.5° (Epoch: 30 September)

Date Brightness Start Highest point End Pass type
(mag) Time Alt. Az. Time Alt. Az. Time Alt. Az.
08 Oct 3.2 19:47:06 10° S 19:47:53 10° S 19:48:39 10° SSE visible
09 Oct 3.2 19:36:41 10° SSW 19:37:55 11° S 19:39:08 10° SSE visible
10 Oct 3.2 19:26:29 10° SSW 19:27:56 12° S 19:29:23 10° SSE visible
